Regional Weather Roundup
Issued by NWS Charleston, SC

Current Version | Previous Version | Graphics & Text | Print | Product List | Glossary On
Versions: 1 2 3 4 5 6 7 8 9 10 11 12 13 14 15 16 17 18 19 20 21 22 23 24 25 26 27 28 29 30 31 32 33 34 35 36 37 38 39 40 41 42 43 44 45 46 47 48 49 50
000
ASUS42 KCHS 270110
RWRCHS

REGIONAL WEATHER ROUNDUP
NATIONAL WEATHER SERVICE CHARLESTON SC
800 PM EST MON JAN 26 2015

NOTE: "FAIR" INDICATES FEW OR NO CLOUDS BELOW 12,000 FEET WITH NO
SIGNIFICANT WEATHER AND/OR OBSTRUCTIONS TO VISIBILITY.

NOT ALL STATIONS ARE QUALITY CONTROLLED BY THE NATIONAL
WEATHER SERVICE. USE DATA WITH CAUTION...ESPECIALLY
DEWPOINT OBSERVATIONS.

SCZ027-030-031-034>040-042>050-270200-
...SOUTHEAST SOUTH CAROLINA...

CITY           SKY/WX    TMP DP  RH WIND       PRES   REMARKS
N CHARLESTON   MOCLDY    51  37  58 W10       29.74R
WATERFRONT PRK   N/A     52 N/A N/A W8G15       N/A
MOUNT PLEASANT CLOUDY   N/A N/A N/A W10       29.72R
PINOPOLIS      NOT AVBL
MONCKS CORNER  CLOUDY    52  39  62 W5        29.72R
SUMMERVILLE    NOT AVBL
BEAUFORT MCAS  PTCLDY    50  35  56 W15G25    29.79R
BEAUFORT ARPT  FAIR      50  37  62 W17G30    29.79R
HILTON HEAD IS CLOUDY    52  36  54 W12G23    29.81R
WALTERBORO     CLEAR     50  32  50 W13G20    29.78R
ALLENDALE      FAIR      45  34  65 VRB6G13   29.81R

...SOUTHERN MIDLANDS AND PEE DEE...

CITY           SKY/WX    TMP DP  RH WIND       PRES   REMARKS
GEORGETOWN     NOT AVBL
KINGSTREE      NOT AVBL
ORANGEBURG     CLEAR     47  33  58 W17G28    29.76R
BARNWELL       FAIR      45  32  61 W9G17     29.81R
AIKEN          FAIR      41  32  70 W10       29.82R
MANNING        NOT AVBL
COLUMBIA       PTCLDY    47  34  60 W15       29.76R
SUMTER         CLOUDY    51  35  54 W15       29.70R
FLORENCE       CLOUDY    49  39  68 N5        29.69R
MYRTLE BEACH   MOCLDY    48  43  81 NW8       29.70R
N MYRTLE BEACH CLOUDY    48  42  80 NW7       29.67R

$$

GAZ063-065-086>088-099>101-113>116-118-119-134>141-150-270200-
...SOUTHEAST GEORGIA...

CITY           SKY/WX    TMP DP  RH WIND       PRES   REMARKS
SAVANNAH ARPT  CLOUDY    49  33  54 W20G25    29.82R
HUNTER AAF     CLOUDY    49  36  61 W16G24    29.80R
FORT STEWART   CLOUDY    49  34  56 W12       29.83R
STATESBORO     MOCLDY    45  33  63 NW17G28   29.85R
SYLVANIA       MOCLDY    45  35  68 NW15G21   29.84R
CLAXTON        FAIR      46  34  61 W21G26    29.87R

...CSRA...CENTRAL AND FAR SOUTHEAST GEORGIA...

CITY           SKY/WX    TMP DP  RH WIND       PRES   REMARKS
THOMSON        CLEAR     41  33  72 W15       29.89S
AUGUSTA-BUSH   CLEAR     42  30  62 W20G26    29.83R
AUGUSTA-DANIEL CLEAR     43  30  60 W13G25    29.83R
SWAINSBORO     FAIR      43  28  56 W15G26    29.88R
VIDALIA        PTCLDY    45  34  65 NW12G21   29.89R
EASTMAN        FAIR      42  33  70 NW8G17    29.95R
HAZLEHURST     FAIR      46  35  65 NW13G23   29.91R
ALMA           CLEAR     46  32  58 W15G24    29.90R
WAYCROSS       MOCLDY    50  37  60 NW14G24   29.91R
JESUP          CLOUDY    52  37  58 NW20G26   29.88R
BAXLEY         FAIR      46  34  61 NW13G21   29.89R
BRUNSWICK      CLOUDY    52  36  54 W10G22    29.87R
SAINT SIMONS   CLOUDY    50  36  58 W10       29.86R

$$

SCZ027-028-034-036>038-045-046-048>050-GAZ119-141-270200-
...LAKE AND SUPPLEMENTAL COASTAL OBSERVATIONS...

STATION/POSITION TIME  TEMP    WIND        PRES    WAVE   SWELL
                       AIR SEA DIR/SP/G            HT/PER HT/PER/DIR
                 (UTC) (F)     (DEG/KT/KT) (MB)    (FT/S) (FT/S/D)
UPR LAKE MARION  NOT AVBL
WINYAH BAY       NOT AVBL
LAKE MURRAY      0000   50     300/  7/ 14 1006.4R
ACE BASIN NERRS  NOT AVBL
FORT PULASKI     0100   50 53  280/ 21/ 25 1009.8R
SAPELO ISLAND    NOT AVBL

$$

ANZ835-935-AMZ111-154-330-350-352-354-370-450-454-472-270200-
...C-MAN AND BUOY OBSERVATIONS...

STATION/POSITION TIME  TEMP    WIND        PRES    WAVE   SWELL
                       AIR SEA DIR/SP/G            HT/PER HT/PER/DIR
                 (UTC) (F)     (DEG/KT/KT) (MB)    (FT/S) (FT/S/D)
BUOY 41004       0100   55 68  310/ 23/ 29 1005.4R   8/ 7   2/10
BUOY 41008       0100   52 55  290/ 21/ 25 1009.8R   4/ 5
FOLLY BEACH CMAN 0000   51     260/  8/ 11 1006.8R
CAPERS NEARSHORE 0000   52     320/  8/ 10   N/A
FRIPP NEARSHORE  0000   53     290/ 21/ 25   N/A


STATION/POSITION TIME  TEMP    WIND        PRES    WAVE   SWELL
                       AIR SEA DIR/SP/G            HT/PER HT/PER/DIR
                 (UTC) (F)     (DEG/KT/KT) (MB)    (FT/S) (FT/S/D)
5E ST. MARYS GA  0100      58                N/A     3/ 4
FRYING PAN BUOY  0100   54 66  300/ 21/ 25 1003.6R   6/ 7   2/290/11
BUOY 41025       0100   54 71  310/ 21/ 25  999.5R   4/ 4   2/ 80/ 8
CAPE LOOKOUT NC  0000   50     330/ 10/ 12 1001.1R
BUOY 41002       0029   65 72  270/ 25/ 33 1001.3R  10/ 7
BUOY 41010       0100   66 76  280/ 25/ 31 1008.9R  13/ 9   7/300/ 9
ST AUGUSTINE FL  0100   52     320/ 13/ 16 1012.3R


$$


USA.gov is the U.S. government's official web portal to all federal, state and local government web resources and services.